| time (UTC) | temp C | wind direction | speed KPH | gust KPH | rain 1hr cm | rain 24hr cm | rain mn cm | humidity % | barometer mb |
| 20260906181028 | 16 | 331 | 22.5 | 33.8 | 0.00 | 0.00 | 0.00 | 57 | 1012.8 |
| 20260906180926 | 16 | 317 | 14.5 | 33.8 | 0.00 | 0.00 | 0.00 | 57 | 1012.8 |
| 20260906175927 | 17 | 334 | 19.3 | 32.2 | 0.00 | 0.00 | 0.00 | 55 | 1012.7 |
| 20260906174827 | 17 | 311 | 20.9 | 29.0 | 0.00 | 0.00 | 0.00 | 54 | 1012.7 |
| 20260906173827 | 17 | 323 | 19.3 | 27.4 | 0.00 | 0.00 | 0.00 | 57 | 1012.8 |
| 20260906172827 | 17 | 325 | 16.1 | 27.4 | 0.00 | 0.03 | 0.00 | 60 | 1013.1 |
| 20260906171827 | 15 | 332 | 8.0 | 11.3 | 0.00 | 0.03 | 0.00 | 65 | 1013.2 |
| 20260906170827 | 16 | 331 | 6.4 | 9.7 | 0.00 | 0.03 | 0.00 | 56 | 1013.3 |
| 20260906165827 | 17 | 338 | 27.4 | 33.8 | 0.00 | 0.03 | 0.00 | 54 | 1013.1 |
| 20260906164828 | 17 | 341 | 14.5 | 22.5 | 0.00 | 0.03 | 0.00 | 53 | 1013.4 |
| 20260906163826 | 16 | 317 | 17.7 | 29.0 | 0.00 | 0.03 | 0.00 | 52 | 1013.5 |
| 20260906162828 | 17 | 324 | 20.9 | 29.0 | 0.00 | 0.03 | 0.00 | 52 | 1013.4 |
| 20260906161826 | 17 | 349 | 22.5 | 32.2 | 0.00 | 0.03 | 0.00 | 53 | 1013.2 |
| 20260906160826 | 16 | 347 | 22.5 | 32.2 | 0.00 | 0.03 | 0.00 | 52 | 1013.5 |
| 20260906155830 | 16 | 336 | 22.5 | 37.0 | 0.00 | 0.03 | 0.00 | 53 | 1013.7 |
| 20260906154927 | 16 | 346 | 16.1 | 25.7 | 0.00 | 0.03 | 0.00 | 52 | 1013.7 |
| 20260906154026 | 16 | 15 | 17.7 | 25.7 | 0.00 | 0.03 | 0.00 | 51 | 1013.9 |
| 20260906153928 | 16 | 359 | 16.1 | 24.1 | 0.00 | 0.03 | 0.00 | 50 | 1013.8 |
| 20260906152926 | 16 | 353 | 22.5 | 29.0 | 0.00 | 0.03 | 0.00 | 51 | 1013.9 |
| 20260906151929 | 16 | 357 | 24.1 | 32.2 | 0.00 | 0.03 | 0.00 | 54 | 1013.7 |
| 20260906150926 | 16 | 350 | 17.7 | 30.6 | 0.00 | 0.03 | 0.00 | 56 | 1013.9 |
| 20260906145927 | 15 | 353 | 19.3 | 27.4 | 0.00 | 0.03 | 0.00 | 57 | 1014.1 |
| 20260906144928 | 15 | 335 | 16.1 | 24.1 | 0.00 | 0.03 | 0.00 | 61 | 1014.0 |
| 20260906143928 | 15 | 317 | 25.7 | 33.8 | 0.00 | 0.03 | 0.00 | 64 | 1013.9 |
| 20260906142928 | 15 | 346 | 11.3 | 19.3 | 0.00 | 0.03 | 0.00 | 68 | 1014.4 |
| 20260906142026 | 14 | 311 | 17.7 | 24.1 | 0.00 | 0.03 | 0.00 | 67 | 1014.2 |
| 20260906141028 | 15 | 312 | 20.9 | 29.0 | 0.00 | 0.03 | 0.00 | 66 | 1014.2 |
| 20260906135127 | 15 | 340 | 14.5 | 19.3 | 0.00 | 0.03 | 0.00 | 67 | 1014.3 |
| 20260906133128 | 14 | 318 | 12.9 | 17.7 | 0.00 | 0.03 | 0.00 | 71 | 1014.4 |
| 20260906132128 | 13 | 324 | 8.0 | 17.7 | 0.00 | 0.03 | 0.00 | 74 | 1014.4 |
| 20260906132029 | 13 | 340 | 12.9 | 17.7 | 0.00 | 0.03 | 0.00 | 74 | 1014.4 |
| 20260906131026 | 13 | 317 | 16.1 | 19.3 | 0.00 | 0.03 | 0.00 | 74 | 1014.3 |
| 20260906130027 | 13 | 313 | 12.9 | 17.7 | 0.00 | 0.03 | 0.00 | 74 | 1014.5 |
| 20260906123927 | 12 | 316 | 12.9 | 20.9 | 0.00 | 0.03 | 0.00 | 76 | 1014.4 |
| 20260906122926 | 13 | 323 | 11.3 | 25.7 | 0.00 | 0.03 | 0.00 | 74 | 1014.5 |
| 20260906121927 | 12 | 344 | 14.5 | 25.7 | 0.00 | 0.03 | 0.00 | 75 | 1014.2 |
| 20260906121827 | 12 | 352 | 24.1 | 32.2 | 0.00 | 0.03 | 0.00 | 75 | 1014.4 |
| 20260906120926 | 12 | 328 | 20.9 | 25.7 | 0.00 | 0.03 | 0.00 | 77 | 1014.4 |
| 20260906115927 | 12 | 343 | 14.5 | 25.7 | 0.00 | 0.03 | 0.00 | 78 | 1014.6 |
| 20260906115831 | 12 | 1 | 11.3 | 20.9 | 0.00 | 0.03 | 0.00 | 78 | 1014.5 |
| 20260906114826 | 12 | 353 | 12.9 | 19.3 | 0.00 | 0.03 | 0.00 | 80 | 1014.4 |
| 20260906113827 | 11 | 354 | 12.9 | 20.9 | 0.00 | 0.03 | 0.00 | 80 | 1014.7 |
| 20260906112828 | 11 | 334 | 8.0 | 14.5 | 0.00 | 0.03 | 0.00 | 83 | 1014.7 |
| 20260906111927 | 11 | 316 | 9.7 | 14.5 | 0.00 | 0.03 | 0.00 | 82 | 1014.6 |
| 20260906110126 | 11 | 300 | 9.7 | 17.7 | 0.00 | 0.03 | 0.00 | 85 | 1014.4 |
| 20260906110027 | 11 | 313 | 11.3 | 20.9 | 0.00 | 0.03 | 0.00 | 85 | 1014.2 |
| 20260906105026 | 10 | 316 | 16.1 | 27.4 | 0.00 | 0.03 | 0.00 | 86 | 1014.1 |
| 20260906104027 | 10 | 328 | 14.5 | 20.9 | 0.00 | 0.03 | 0.00 | 87 | 1014.0 |
| 20260906103028 | 10 | 316 | 9.7 | 17.7 | 0.00 | 0.03 | 0.00 | 87 | 1013.9 |
| 20260906102126 | 10 | 311 | 14.5 | 19.3 | 0.00 | 0.03 | 0.00 | 87 | 1013.9 |
| 20260906101128 | 10 | 308 | 14.5 | 17.7 | 0.00 | 0.03 | 0.00 | 87 | 1013.8 |
| 20260906100127 | 10 | 314 | 11.3 | 14.5 | 0.00 | 0.03 | 0.00 | 88 | 1013.9 |
| 20260906094128 | 10 | 307 | 11.3 | 16.1 | 0.00 | 0.03 | 0.00 | 89 | 1013.8 |
| 20260906094027 | 10 | 312 | 12.9 | 17.7 | 0.00 | 0.03 | 0.00 | 89 | 1013.7 |
| 20260906093126 | 10 | 313 | 11.3 | 14.5 | 0.00 | 0.03 | 0.00 | 89 | 1013.7 |
| 20260906092128 | 10 | 315 | 14.5 | 24.1 | 0.00 | 0.03 | 0.00 | 89 | 1013.7 |
| 20260906092026 | 10 | 311 | 14.5 | 17.7 | 0.00 | 0.03 | 0.00 | 89 | 1013.5 |
| 20260906085028 | 10 | 302 | 12.9 | 17.7 | 0.00 | 0.03 | 0.00 | 88 | 1013.6 |
| 20260906084027 | 10 | 297 | 12.9 | 17.7 | 0.00 | 0.03 | 0.00 | 87 | 1013.6 |
| 20260906083125 | 10 | 310 | 14.5 | 20.9 | 0.00 | 0.03 | 0.00 | 86 | 1013.5 |
| 20260906081142 | 10 | 315 | 12.9 | 14.5 | 0.00 | 0.03 | 0.00 | 86 | 1013.7 |
| 20260906075228 | 10 | 308 | 12.9 | 16.1 | 0.00 | 0.03 | 0.00 | 87 | 1013.5 |
| 20260906074226 | 10 | 309 | 11.3 | 14.5 | 0.00 | 0.03 | 0.00 | 87 | 1013.7 |
| 20260906073227 | 10 | 315 | 9.7 | 12.9 | 0.00 | 0.03 | 0.00 | 86 | 1013.7 |
| 20260906072228 | 10 | 315 | 9.7 | 11.3 | 0.00 | 0.03 | 0.00 | 87 | 1013.7 |
| 20260906071229 | 11 | 310 | 9.7 | 11.3 | 0.00 | 0.03 | 0.00 | 86 | 1013.6 |
| 20260906070226 | 11 | 336 | 4.8 | 6.4 | 0.00 | 0.03 | 0.00 | 85 | 1013.6 |
| 20260906065227 | 11 | 321 | 11.3 | 14.5 | 0.00 | 0.03 | 0.00 | 85 | 1013.6 |
| 20260906063228 | 11 | 320 | 8.0 | 12.9 | 0.00 | 0.03 | 0.00 | 82 | 1013.6 |
| 20260906061227 | 11 | 343 | 6.4 | 11.3 | 0.00 | 0.03 | 0.00 | 81 | 1013.7 |
| 20260906060227 | 11 | 2 | 6.4 | 9.7 | 0.00 | 0.03 | 0.00 | 81 | 1013.7 |
| 20260906055227 | 11 | 321 | 9.7 | 12.9 | 0.00 | 0.03 | 0.00 | 80 | 1013.7 |
| 20260906053226 | 12 | 331 | 11.3 | 17.7 | 0.00 | 0.03 | 0.00 | 79 | 1013.6 |
| 20260906053127 | 12 | 342 | 9.7 | 11.3 | 0.00 | 0.03 | 0.00 | 80 | 1013.6 |
| 20260906052126 | 12 | 2 | 14.5 | 20.9 | 0.00 | 0.03 | 0.00 | 79 | 1013.7 |
| 20260906051226 | 12 | 340 | 9.7 | 14.5 | 0.00 | 0.03 | 0.00 | 81 | 1013.9 |
| 20260906050227 | 12 | 335 | 9.7 | 14.5 | 0.00 | 0.03 | 0.00 | 80 | 1013.9 |
| 20260906045325 | 12 | 328 | 9.7 | 17.7 | 0.00 | 0.03 | 0.00 | 80 | 1013.9 |
| 20260906044327 | 12 | 343 | 11.3 | 17.7 | 0.00 | 0.03 | 0.00 | 81 | 1013.8 |
| 20260906043426 | 12 | 5 | 9.7 | 12.9 | 0.00 | 0.03 | 0.00 | 79 | 1013.7 |
| 20260906041425 | 13 | 344 | 9.7 | 16.1 | 0.00 | 0.03 | 0.00 | 77 | 1013.7 |
| 20260906034614 | 13 | 13 | 8.0 | 9.7 | 0.00 | 0.03 | 0.03 | 77 | 1013.7 |
| 20260906033617 | 13 | 22 | 11.3 | 14.5 | 0.00 | 0.03 | 0.03 | 77 | 1013.7 |
| 20260906032615 | 13 | 21 | 17.7 | 22.5 | 0.00 | 0.03 | 0.03 | 78 | 1013.6 |
| 20260906031618 | 13 | 7 | 16.1 | 25.7 | 0.00 | 0.03 | 0.03 | 78 | 1013.6 |
| 20260906025617 | 13 | 15 | 17.7 | 32.2 | 0.00 | 0.03 | 0.03 | 78 | 1013.8 |
| 20260906023815 | 14 | 5 | 14.5 | 19.3 | 0.00 | 0.03 | 0.03 | 77 | 1013.5 |
| 20260906022716 | 14 | 36 | 14.5 | 22.5 | 0.00 | 0.03 | 0.03 | 77 | 1013.5 |
| 20260906021717 | 14 | 19 | 14.5 | 22.5 | 0.00 | 0.03 | 0.03 | 79 | 1013.5 |
| 20260906020718 | 14 | 17 | 17.7 | 25.7 | 0.00 | 0.03 | 0.03 | 80 | 1013.3 |
| 20260906015716 | 14 | 22 | 12.9 | 19.3 | 0.00 | 0.03 | 0.03 | 80 | 1013.4 |
| 20260906014719 | 14 | 16 | 16.1 | 27.4 | 0.00 | 0.03 | 0.03 | 80 | 1013.7 |
| 20260906014616 | 14 | 10 | 11.3 | 17.7 | 0.00 | 0.03 | 0.03 | 80 | 1013.7 |
| 20260906013714 | 14 | 18 | 14.5 | 19.3 | 0.00 | 0.03 | 0.03 | 80 | 1013.7 |
| 20260906011717 | 14 | 34 | 11.3 | 16.1 | 0.00 | 0.03 | 0.03 | 80 | 1013.7 |
| 20260906010719 | 15 | 25 | 14.5 | 20.9 | 0.00 | 0.03 | 0.03 | 79 | 1013.7 |
| 20260906005815 | 15 | 47 | 17.7 | 24.1 | 0.00 | 0.03 | 0.03 | 78 | 1013.6 |
| 20260906004914 | 15 | 23 | 19.3 | 29.0 | 0.00 | 0.03 | 0.03 | 78 | 1013.8 |
| 20260906003915 | 15 | 36 | 14.5 | 24.1 | 0.00 | 0.03 | 0.03 | 77 | 1013.8 |
| 20260906003014 | 15 | 8 | 14.5 | 19.3 | 0.00 | 0.03 | 0.03 | 79 | 1013.9 |
| 20260906002014 | 15 | 4 | 14.5 | 20.9 | 0.00 | 0.03 | 0.03 | 81 | 1013.9 |
| 20260906001016 | 15 | 346 | 16.1 | 20.9 | 0.00 | 0.03 | 0.03 | 81 | 1013.9 |
| 20260905235914 | 15 | 338 | 12.9 | 19.3 | 0.00 | 0.03 | 0.03 | 80 | 1013.7 |
| 20260905235816 | 15 | 331 | 12.9 | 24.1 | 0.00 | 0.03 | 0.03 | 79 | 1013.8 |
| 20260905233918 | 15 | 3 | 12.9 | 19.3 | 0.00 | 0.03 | 0.03 | 80 | 1013.5 |
| 20260905233816 | 15 | 344 | 14.5 | 19.3 | 0.00 | 0.03 | 0.03 | 80 | 1013.6 |
| 20260905232817 | 15 | 329 | 14.5 | 22.5 | 0.00 | 0.03 | 0.03 | 80 | 1013.6 |
| 20260905231817 | 16 | 341 | 19.3 | 24.1 | 0.00 | 0.03 | 0.03 | 79 | 1013.4 |
| 20260905230916 | 16 | 340 | 12.9 | 22.5 | 0.00 | 0.03 | 0.03 | 76 | 1013.3 |
| 20260905225818 | 16 | 332 | 14.5 | 19.3 | 0.00 | 0.03 | 0.03 | 76 | 1013.1 |
| 20260905224915 | 16 | 30 | 14.5 | 22.5 | 0.00 | 0.03 | 0.03 | 75 | 1013.0 |
| 20260905223914 | 16 | 24 | 12.9 | 17.7 | 0.00 | 0.03 | 0.03 | 76 | 1012.9 |
| 20260905222915 | 16 | 32 | 20.9 | 25.7 | 0.00 | 0.03 | 0.03 | 76 | 1012.7 |
| 20260905221916 | 16 | 8 | 16.1 | 24.1 | 0.00 | 0.03 | 0.03 | 75 | 1012.7 |
| 20260905220917 | 16 | 44 | 22.5 | 33.8 | 0.00 | 0.03 | 0.03 | 74 | 1012.4 |
| 20260905215914 | 16 | 30 | 14.5 | 20.9 | 0.00 | 0.03 | 0.03 | 73 | 1012.4 |
| 20260905214915 | 16 | 19 | 17.7 | 27.4 | 0.00 | 0.03 | 0.03 | 77 | 1012.1 |
| 20260905213915 | 17 | 38 | 20.9 | 35.4 | 0.00 | 0.03 | 0.03 | 72 | 1011.8 |
| 20260905211915 | 17 | 11 | 12.9 | 19.3 | 0.00 | 0.03 | 0.03 | 72 | 1011.5 |
| 20260905211014 | 17 | 45 | 8.0 | 11.3 | 0.00 | 0.03 | 0.03 | 72 | 1011.6 |
| 20260905210017 | 17 | 25 | 12.9 | 19.3 | 0.00 | 0.03 | 0.03 | 72 | 1011.4 |
| 20260905204114 | 17 | 24 | 8.0 | 11.3 | 0.00 | 0.03 | 0.03 | 73 | 1011.2 |
| 20260905202116 | 17 | 25 | 19.3 | 25.7 | 0.00 | 0.03 | 0.03 | 74 | 1011.0 |
| 20260905201115 | 17 | 350 | 19.3 | 25.7 | 0.00 | 0.03 | 0.03 | 75 | 1011.1 |
| 20260905201015 | 17 | 332 | 16.1 | 25.7 | 0.00 | 0.03 | 0.03 | 75 | 1010.9 |
| 20260905200015 | 17 | 339 | 3.2 | 6.4 | 0.00 | 0.03 | 0.03 | 76 | 1010.9 |
| 20260905195015 | 17 | 343 | 11.3 | 14.5 | 0.00 | 0.03 | 0.03 | 79 | 1010.9 |
| 20260905194016 | 16 | 323 | 12.9 | 17.7 | 0.00 | 0.03 | 0.03 | 81 | 1011.0 |
| 20260905192015 | 17 | 21 | 20.9 | 29.0 | 0.00 | 0.03 | 0.03 | 76 | 1011.0 |
| 20260905191014 | 17 | 22 | 17.7 | 22.5 | 0.00 | 0.03 | 0.03 | 74 | 1011.1 |
| 20260905185114 | 17 | 15 | 24.1 | 35.4 | 0.00 | 0.03 | 0.03 | 75 | 1011.1 |
| 20260905184115 | 17 | 356 | 9.7 | 12.9 | 0.00 | 0.03 | 0.03 | 74 | 1010.7 |
| 20260905183214 | 18 | 322 | 12.9 | 16.1 | 0.03 | 0.03 | 0.03 | 72 | 1010.8 |
| 20260905182216 | 18 | 326 | 8.0 | 11.3 | 0.03 | 0.03 | 0.03 | 73 | 1010.7 |